TimeCDT,TemperatureF,Dew PointF,Humidity,Sea Level PressureIn,VisibilityMPH,Wind Direction,Wind SpeedMPH,Gust SpeedMPH,PrecipitationIn,Events,Conditions,WindDirDegrees,DateUTC
12:54 AM,39.0,21.0,49,30.04,10.0,SSW,10.4,-,N/A,,Clear,200,2012-10-08 05:54:00
1:54 AM,39.0,23.0,53,30.03,10.0,SSW,11.5,-,N/A,,Clear,200,2012-10-08 06:54:00
2:54 AM,39.0,24.1,55,30.02,10.0,SSW,12.7,-,N/A,,Clear,200,2012-10-08 07:54:00
3:54 AM,37.9,24.1,57,30.00,10.0,South,10.4,-,N/A,,Clear,190,2012-10-08 08:54:00
4:54 AM,37.9,26.1,62,29.99,10.0,South,10.4,-,N/A,,Clear,190,2012-10-08 09:54:00
5:54 AM,37.0,27.0,67,29.98,10.0,South,10.4,-,N/A,,Clear,190,2012-10-08 10:54:00
6:54 AM,37.0,28.0,70,29.97,10.0,South,11.5,-,N/A,,Clear,190,2012-10-08 11:54:00
7:54 AM,39.0,28.9,67,29.97,10.0,South,15.0,-,N/A,,Clear,190,2012-10-08 12:54:00
8:54 AM,43.0,30.0,60,29.96,10.0,SSW,17.3,24.2,N/A,,Clear,200,2012-10-08 13:54:00
9:54 AM,48.9,30.9,50,29.95,10.0,SSW,23.0,26.5,N/A,,Clear,210,2012-10-08 14:54:00
10:54 AM,55.0,30.9,40,29.93,10.0,SSW,16.1,24.2,N/A,,Clear,200,2012-10-08 15:54:00
11:54 AM,57.0,30.0,36,29.91,10.0,South,18.4,-,N/A,,Clear,190,2012-10-08 16:54:00
12:54 PM,60.1,30.9,33,29.89,10.0,SSW,25.3,33.4,N/A,,Partly Cloudy,210,2012-10-08 17:54:00
1:54 PM,64.9,28.9,26,29.86,10.0,SSW,25.3,36.8,N/A,,Clear,210,2012-10-08 18:54:00
2:54 PM,63.0,28.9,28,29.83,10.0,SSW,26.5,33.4,N/A,,Clear,210,2012-10-08 19:54:00
3:54 PM,64.9,30.0,27,29.82,10.0,SSW,24.2,32.2,N/A,,Clear,210,2012-10-08 20:54:00
4:54 PM,64.0,30.0,28,29.80,10.0,SSW,20.7,34.5,N/A,,Clear,200,2012-10-08 21:54:00
5:54 PM,63.0,30.9,30,29.81,10.0,SSW,18.4,28.8,N/A,,Mostly Cloudy,210,2012-10-08 22:54:00
6:54 PM,61.0,32.0,34,29.82,10.0,SSW,20.7,27.6,N/A,,Scattered Clouds,200,2012-10-08 23:54:00
7:54 PM,57.9,30.9,36,29.82,10.0,South,13.8,23.0,N/A,,Clear,180,2012-10-09 00:54:00
8:54 PM,57.0,32.0,39,29.82,10.0,South,18.4,26.5,N/A,,Clear,190,2012-10-09 01:54:00
9:54 PM,55.9,32.0,40,29.82,10.0,South,16.1,24.2,N/A,,Clear,190,2012-10-09 02:54:00
10:54 PM,55.0,32.0,42,29.83,10.0,SSW,20.7,32.2,N/A,,Partly Cloudy,200,2012-10-09 03:54:00
11:54 PM,54.0,33.1,45,29.84,10.0,SSW,15.0,23.0,N/A,,Clear,210,2012-10-09 04:54:00